Regional Weather Roundup
Issued by NWS

Home | Current Version | Previous Version | Graphics & Text | Print | Product List | Glossary On
Versions: 1 2 3 4 5 6 7 8 9 10 11 12 13 14 15 16 17 18 19 20 21 22 23 24 25 26 27 28 29 30 31 32 33 34 35 36 37 38 39 40 41 42 43 44 45 46 47 48 49 50
000
ASUS43 KLMK 181302
RWRKY
KENTUCKY REGIONAL WEATHER ROUNDUP
NATIONAL WEATHER SERVICE LOUISVILLE KY
900 AM EDT FRI AUG 18 2017

NOTE "FAIR" INDICATES FEW OR NO CLOUDS BELOW 12,000 FEET
WITH NO SIGNIFICANT WEATHER AND/OR OBSTRUCTIONS TO VISIBILITY.

KYZ001>023-026-027-061>063-070>075-181400-
WESTERN AND SOUTH CENTRAL KENTUCKY

CITY           SKY/WX    TMP DP  RH WIND       PRES   REMARKS
PADUCAH        SUNNY     73  67  81 W8        29.97R
HENDERSON      SUNNY     72  68  87 SW6       29.95R
OWENSBORO      SUNNY     73  69  87 W9        29.95R
HOPKINSVILLE   SUNNY     74  72  92 SW8       29.98R
BOWLING GREEN  SUNNY     76  73  91 W7        29.97R
GLASGOW        CLOUDY    74  73  96 W7        29.96S
$$

KYZ024-025-028>034-038-045-046-053-181400-
NORTH CENTRAL KENTUCKY

CITY           SKY/WX    TMP DP  RH WIND       PRES   REMARKS
LOUISVILLE/SDF MOSUNNY   76  71  85 W9        29.93R
LOUISVILLE/LOU SUNNY     76  73  91 W7        29.93R
FORT KNOX      MOSUNNY   75  70  86 W6        29.93R
$$

KYZ035>037-039>044-047>052-055>060-089>105-181400-
NORTHEAST KENTUCKY

CITY           SKY/WX    TMP DP  RH WIND       PRES   REMARKS
LEXINGTON      CLOUDY    75  71  87 W5        29.94R
COVINGTON      MOSUNNY   74  73  97 W8        29.90R
FRANKFORT      MOSUNNY   76  71  85 W6        29.92R
$$

KYZ054-064>069-076>088-106>120-181400-
SOUTHEAST KENTUCKY

CITY           SKY/WX    TMP DP  RH WIND       PRES   REMARKS
JACKSON        CLOUDY    72  71  97 CALM      29.95S
LONDON         CLOUDY    74  72  93 SW5       29.97R
SOMERSET       NOT AVBL
MIDDLESBORO    CLOUDY    76  74  92 CALM      29.98S
MONTICELLO     LGT RAIN  74  73  97 W16       29.98R
$$





USA.gov is the U.S. government's official web portal to all federal, state and local government web resources and services.